When you browse on this site, cookies collect data to enhance your experience and personalize the content and advertising you see.
Visit our Privacy Policy to learn more. By continuing to use the site, you agree to this use of cookies and data.
  • In Portugal
  • List of Countries
  • For 7 days
  • Water Temperature
  • Weather Map
  • Weather Widgets
  • user-avatar
    Login

    Hourly Weather Linz

    Today, 25 August, Sunday

    Time Temperature Precipitation Wind Pressure Humidity
    00:00 +20°C° 0 mm 1 mps 736 mmHg 83%
    01:00 +19°C° 0 mm 1 mps 736 mmHg 85%
    02:00 +19°C° 0 mm 1 mps 736 mmHg 86%
    03:00 +18°C° 0 mm 1 mps 736 mmHg 87%
    04:00 +18°C° 0 mm 1 mps 736 mmHg 88%
    05:00 +17°C° 0 mm 0 mps 736 mmHg 86%
    06:00 +18°C° 0 mm 0 mps 736 mmHg 85%
    07:00 +18°C° 0 mm 0 mps 736 mmHg 83%
    08:00 +20°C° 0 mm 0 mps 737 mmHg 77%
    09:00 +22°C° 0 mm 0 mps 737 mmHg 71%
    10:00 +26°C° 0 mm 1 mps 737 mmHg 65%
    11:00 +27°C° 0 mm 1 mps 737 mmHg 62%
    12:00 +28°C° 0 mm 1 mps 737 mmHg 58%
    13:00 +29°C° 0 mm 1 mps 736 mmHg 55%
    14:00 +29°C° 0 mm 1 mps 736 mmHg 55%
    15:00 +29°C° 0 mm 1 mps 736 mmHg 55%
    16:00 +30°C° 0 mm 1 mps 736 mmHg 54%
    17:00 +28°C° 0 mm 1 mps 736 mmHg 61%
    18:00 +26°C° 0 mm 1 mps 736 mmHg 67%
    19:00 +24°C° 0 mm 1 mps 736 mmHg 74%
    20:00 +23°C° 0.4 mm 1 mps 736 mmHg 76%
    21:00 +22°C° 0.4 mm 1 mps 736 mmHg 79%
    22:00 +21°C° 0.4 mm 1 mps 737 mmHg 81%
    23:00 +20°C° 0 mm 1 mps 737 mmHg 82%

    Tomorrow, 26 August, Monday

    Time Temperature Precipitation Wind Pressure Humidity
    00:00 +20°C° 0 mm 1 mps 736 mmHg 83%
    01:00 +17°C° 0 mm 0 mps 736 mmHg 84%
    02:00 +17°C° 0 mm 0 mps 736 mmHg 85%
    03:00 +17°C° 0 mm 0 mps 736 mmHg 86%
    04:00 +16°C° 0 mm 0 mps 736 mmHg 86%
    05:00 +17°C° 0 mm 0 mps 736 mmHg 85%
    06:00 +18°C° 0 mm 0 mps 736 mmHg 83%
    07:00 +19°C° 0 mm 0 mps 736 mmHg 82%
    08:00 +20°C° 0 mm 0 mps 736 mmHg 77%
    09:00 +24°C° 0 mm 1 mps 736 mmHg 71%
    10:00 +26°C° 0 mm 1 mps 736 mmHg 66%
    11:00 +27°C° 0 mm 1 mps 736 mmHg 62%
    12:00 +28°C° 0 mm 1 mps 736 mmHg 58%
    13:00 +29°C° 0 mm 2 mps 736 mmHg 54%
    14:00 +30°C° 0.1 mm 1 mps 735 mmHg 54%
    15:00 +30°C° 0.1 mm 1 mps 735 mmHg 54%
    16:00 +30°C° 0.1 mm 1 mps 735 mmHg 54%
    17:00 +28°C° 0.1 mm 1 mps 735 mmHg 61%
    18:00 +26°C° 0.1 mm 1 mps 735 mmHg 68%
    19:00 +24°C° 0.1 mm 1 mps 735 mmHg 75%
    20:00 +23°C° 0.4 mm 1 mps 735 mmHg 79%
    21:00 +22°C° 0.4 mm 1 mps 735 mmHg 83%
    22:00 +21°C° 0.4 mm 1 mps 735 mmHg 87%
    23:00 +21°C° 0.1 mm 1 mps 735 mmHg 88%

    Day after tomorrow, 27 August, Tuesday

    Time Temperature Precipitation Wind Pressure Humidity
    00:00 +20°C° 0.1 mm 1 mps 735 mmHg 89%
    01:00 +18°C° 0.1 mm 0 mps 735 mmHg 90%
    02:00 +18°C° 0 mm 0 mps 735 mmHg 90%
    03:00 +17°C° 0 mm 0 mps 735 mmHg 90%
    04:00 +17°C° 0 mm 0 mps 735 mmHg 91%
    05:00 +18°C° 0 mm 0 mps 735 mmHg 89%
    06:00 +19°C° 0 mm 0 mps 735 mmHg 88%
    07:00 +19°C° 0 mm 0 mps 735 mmHg 87%
    08:00 +21°C° 0 mm 0 mps 736 mmHg 80%
    09:00 +23°C° 0 mm 0 mps 736 mmHg 74%
    10:00 +27°C° 0 mm 1 mps 736 mmHg 67%
    11:00 +28°C° 0.1 mm 1 mps 736 mmHg 64%
    12:00 +29°C° 0.1 mm 1 mps 736 mmHg 60%
    13:00 +30°C° 0.1 mm 1 mps 736 mmHg 56%
    14:00 +30°C° 0.1 mm 1 mps 735 mmHg 56%
    15:00 +30°C° 0.1 mm 1 mps 735 mmHg 55%
    16:00 +30°C° 0.1 mm 1 mps 735 mmHg 55%
    17:00 +28°C° 0.1 mm 1 mps 735 mmHg 62%
    18:00 +26°C° 0.1 mm 1 mps 735 mmHg 68%
    19:00 +22°C° 0.1 mm 0 mps 735 mmHg 75%
    20:00 +22°C° 0 mm 0 mps 735 mmHg 78%
    21:00 +23°C° 0 mm 1 mps 735 mmHg 80%
    22:00 +22°C° 0 mm 1 mps 736 mmHg 83%
    23:00 +21°C° 0 mm 1 mps 735 mmHg 85%

    28 August, Wednesday

    Time Temperature Precipitation Wind Pressure Humidity
    00:00 +21°C° 0 mm 1 mps 735 mmHg 86%
    01:00 +20°C° 0 mm 1 mps 735 mmHg 87%
    02:00 +18°C° 0 mm 0 mps 735 mmHg 88%
    03:00 +18°C° 0 mm 0 mps 735 mmHg 89%
    04:00 +17°C° 0 mm 0 mps 734 mmHg 90%
    05:00 +18°C° 0 mm 0 mps 734 mmHg 88%
    06:00 +19°C° 0 mm 0 mps 734 mmHg 86%
    07:00 +20°C° 0 mm 0 mps 734 mmHg 84%
    08:00 +22°C° 0 mm 0 mps 734 mmHg 77%
    09:00 +26°C° 0 mm 1 mps 734 mmHg 70%
    10:00 +27°C° 0 mm 1 mps 734 mmHg 63%
    11:00 +29°C° 0 mm 1 mps 734 mmHg 59%
    12:00 +30°C° 0 mm 1 mps 734 mmHg 56%
    13:00 +31°C° 0 mm 2 mps 733 mmHg 52%
    14:00 +31°C° 0.1 mm 1 mps 733 mmHg 52%
    15:00 +31°C° 0.1 mm 1 mps 733 mmHg 51%
    16:00 +32°C° 0.1 mm 1 mps 733 mmHg 51%
    17:00 +30°C° 0.1 mm 1 mps 732 mmHg 58%
    18:00 +28°C° 0.1 mm 1 mps 732 mmHg 65%
    19:00 +26°C° 0.1 mm 1 mps 732 mmHg 72%
    20:00 +25°C° 0.2 mm 1 mps 732 mmHg 75%
    21:00 +24°C° 0.2 mm 1 mps 732 mmHg 79%
    22:00 +22°C° 0.2 mm 1 mps 733 mmHg 82%
    23:00 +22°C° 0.9 mm 1 mps 732 mmHg 85%

    29 August, Thursday

    Time Temperature Precipitation Wind Pressure Humidity
    00:00 +21°C° 0.9 mm 1 mps 732 mmHg 87%
    01:00 +21°C° 0.9 mm 1 mps 732 mmHg 90%
    02:00 +21°C° 0.1 mm 1 mps 732 mmHg 90%
    03:00 +20°C° 0.1 mm 1 mps 732 mmHg 91%
    04:00 +20°C° 0.1 mm 1 mps 732 mmHg 91%
    05:00 +21°C° 0.2 mm 1 mps 732 mmHg 91%
    06:00 +21°C° 0.2 mm 1 mps 732 mmHg 90%
    07:00 +22°C° 0.2 mm 1 mps 733 mmHg 89%
    08:00 +23°C° 0.2 mm 1 mps 733 mmHg 83%
    09:00 +25°C° 0.2 mm 2 mps 733 mmHg 78%
    10:00 +26°C° 0.2 mm 2 mps 733 mmHg 72%
    11:00 +27°C° 0.6 mm 2 mps 733 mmHg 70%
    12:00 +28°C° 0.6 mm 2 mps 733 mmHg 67%
    13:00 +29°C° 0.6 mm 2 mps 733 mmHg 65%
    14:00 +28°C° 1.3 mm 3 mps 733 mmHg 68%
    15:00 +28°C° 1.3 mm 3 mps 733 mmHg 71%
    16:00 +27°C° 1.3 mm 3 mps 733 mmHg 75%
    17:00 +26°C° 0.7 mm 3 mps 733 mmHg 79%
    18:00 +24°C° 0.7 mm 2 mps 734 mmHg 83%
    19:00 +21°C° 0.7 mm 2 mps 734 mmHg 87%
    20:00 +21°C° 0.1 mm 2 mps 734 mmHg 88%
    21:00 +21°C° 0.1 mm 2 mps 735 mmHg 88%
    22:00 +20°C° 0.1 mm 2 mps 735 mmHg 89%
    23:00 +21°C° 0.1 mm 1 mps 735 mmHg 89%

    30 August, Friday

    Time Temperature Precipitation Wind Pressure Humidity
    00:00 +21°C° 0.1 mm 1 mps 735 mmHg 89%
    01:00 +21°C° 0.1 mm 1 mps 735 mmHg 90%
    02:00 +21°C° 0.6 mm 1 mps 735 mmHg 91%
    03:00 +20°C° 0.6 mm 1 mps 736 mmHg 93%
    04:00 +20°C° 0.6 mm 1 mps 736 mmHg 94%
    05:00 +20°C° 0.4 mm 1 mps 736 mmHg 94%
    06:00 +20°C° 0.4 mm 1 mps 736 mmHg 94%
    07:00 +21°C° 0.4 mm 1 mps 736 mmHg 93%
    08:00 +21°C° 0.1 mm 1 mps 737 mmHg 91%
    09:00 +22°C° 0.1 mm 1 mps 737 mmHg 88%
    10:00 +23°C° 0.1 mm 1 mps 737 mmHg 85%
    11:00 +24°C° 0.2 mm 1 mps 737 mmHg 81%
    12:00 +25°C° 0.2 mm 1 mps 737 mmHg 76%
    13:00 +26°C° 0.2 mm 1 mps 737 mmHg 72%
    14:00 +26°C° 0.2 mm 1 mps 736 mmHg 71%
    15:00 +26°C° 0.2 mm 1 mps 736 mmHg 70%
    16:00 +26°C° 0.2 mm 1 mps 736 mmHg 69%
    17:00 +25°C° 0.7 mm 1 mps 736 mmHg 75%
    18:00 +23°C° 0.7 mm 1 mps 736 mmHg 81%
    19:00 +20°C° 0.7 mm 0 mps 736 mmHg 87%
    20:00 +22°C° 0.2 mm 1 mps 736 mmHg 88%
    21:00 +21°C° 0.2 mm 1 mps 736 mmHg 90%
    22:00 +20°C° 0.2 mm 1 mps 737 mmHg 91%
    23:00 +20°C° 0 mm 1 mps 736 mmHg 92%
    Show more